This is the latest recevied weather packets stored in our database for station/object WY7ATH-2. If no packets are shown the sender has not sent any weather packets the latest 10 day(s).
| Time | Temp. | Humidity | Pressure | Rain* | Wind** | Luminosity | Snow |
|---|---|---|---|---|---|---|---|
| 1788666137 | 16.67° C | - | - | 0 mm | 0 m/s | - | - |
| 1788665540 | 17.22° C | - | - | 0 mm | 0 m/s | - | - |
| 1788664347 | 17.78° C | - | - | 0 mm | 0 m/s | - | - |
| 1788661360 | 19.44° C | - | - | 1.02 mm | 0 m/s | - | - |
| 1788658371 | 18.89° C | - | - | 7.62 mm | 0 m/s | - | - |
| 1788656577 | 21.11° C | - | - | 7.62 mm | 0 m/s | - | - |
| 1788655378 | 21.67° C | - | - | 9.65 mm | 0 m/s | - | - |
| 1788654781 | 22.22° C | - | - | 9.65 mm | 0 m/s | - | - |
| 1788653588 | 24.44° C | - | - | 9.65 mm | 0 m/s | - | - |
| 1788652990 | 25° C | - | - | 9.65 mm | 0 m/s | - | - |
| 1788652389 | 26.11° C | - | - | 10.67 mm | 2.68 m/s, 318° | - | - |
| 1788651792 | 26.11° C | - | - | 10.67 mm | 3.13 m/s, 332° | - | - |
| 1788650598 | 25° C | - | - | 10.67 mm | 5.81 m/s, 297° | - | - |
| 1788650001 | 26.11° C | - | - | 10.67 mm | 5.81 m/s, 307° | - | - |
| 1788649404 | 27.22° C | - | - | 10.67 mm | 6.26 m/s, 301° | - | - |
| 1788648206 | 28.33° C | - | - | 10.67 mm | 3.58 m/s, 8° | - | - |
| 1788647609 | 29.44° C | - | - | 10.67 mm | 6.26 m/s, 323° | - | - |
| 1788647012 | 29.44° C | - | - | 10.67 mm | 5.81 m/s, 314° | - | - |
| 1788645818 | 27.78° C | - | - | 10.67 mm | 0 m/s | - | - |
| 1788644620 | 27.22° C | - | - | 12.45 mm | 0 m/s | - | - |
| 1788642232 | 28.89° C | - | - | 12.45 mm | 0 m/s | - | - |
| 1788641632 | 30° C | - | - | 11.68 mm | 0.45 m/s, 115° | - | - |
| 1788639840 | 27.78° C | - | - | 11.68 mm | 0 m/s | - | - |
| 1788639243 | 28.33° C | - | - | 11.68 mm | 1.79 m/s, 51° | - | - |
| 1788638647 | 27.78° C | - | - | 11.68 mm | 4.47 m/s, 89° | - | - |
* Rain latest hour (hover to see other rain measurements)
** Current wind speed in m/s (hover to see current wind gust speed)